Regional Weather Roundup
Issued by NWS

Home | Current Version | Previous Version | Text Only | Print | Product List | Glossary On
Versions: 1 2 3 4 5 6 7 8 9 10 11 12 13 14 15 16 17 18 19 20 21 22 23 24 25 26 27 28 29 30 31 32 33 34 35 36 37 38 39 40 41 42 43 44 45 46 47 48 49 50
743
ASUS44 KJAN 021710
RWRMS

MISSISSIPPI HOURLY WEATHER ROUNDUP
NATIONAL WEATHER SERVICE JACKSON MS
1100 AM CST MON MAR 02 2015

NOTE: "FAIR: INDICATES FEW OR NO CLOUDS BELOW 12,000 FEET WITH NO
SIGNIFICANT WEATHER AND/OR OBSTRUCTIONS TO VISIBILITY.

MSZ001>002-007>008-010>013-018>021-025>028-034>036-021800-
NORTHWEST MISSISSIPPI

CITY           SKY/WX    TMP DP  RH WIND       PRES   REMARKS
CLARKSDALE     CLOUDY    37  36  93 N8        30.45S WCI  31
CLEVELAND      CLOUDY    38  38 100 NE12      30.42F FOG     WCI  30
GREENWOOD        N/A    N/A N/A N/A MISG      30.40R
GREENVILLE     CLOUDY    39  36  89 NE17      30.40F FOG     WCI  30
OLIVE BRANCH   CLOUDY    36  34  93 E12       30.43F WCI  27
OXFORD         CLOUDY    37  36  93 NE9       30.42S FOG     WCI  31
TUNICA         PTSUNNY   37  32  81 NE10      30.44F WCI  30
$$

MSZ003>006-009-014>017-022>024-029>033-037>039-021800-
NORTHEAST MISSISSIPPI

CITY           SKY/WX    TMP DP  RH WIND       PRES   REMARKS
COLUMBUS AFB   LGT RAIN  46  46 100 N14       30.39R
CORINTH        CLOUDY    41  34  75 E12       30.42F
GOLDN TRIANGLE CLOUDY    46  43  87 N8        30.38R
STARKVILLE     CLOUDY    43  43 100 N5        30.39S FOG
TUPELO         CLOUDY    41  37  86 E10       30.42S
$$

MSZ040-058-021800-
CENTRAL MISSISSIPPI

CITY           SKY/WX    TMP DP  RH WIND       PRES   REMARKS
JACKSON INTL   FOG       51  50  96 N6        30.34S VSB 1/2
JACKSON HAWKNS CLOUDY    49  48  97 N3        30.34S FOG
MERIDIAN KEY   CLOUDY    57  55  93 NE9       30.34S
MERIDIAN NAS   CLOUDY    56  54  93 E8        30.35S FOG
VICKSBURG      CLOUDY    44  42  93 N9        30.37S
$$

MSZ059>079-021800-
SOUTH MISSISSIPPI

CITY           SKY/WX    TMP DP  RH WIND       PRES   REMARKS
BROOKHAVEN     CLOUDY    55  55 100 N6        30.33R
HATTIESBURG    CLOUDY    61  60  97 E5        30.30F FOG
MCCOMB         CLOUDY    63  61  93 CALM      30.29S FOG
NATCHEZ        CLOUDY    46  45  93 N3        30.35R
PINE BELT      CLOUDY    61  57  88 NE3       30.32S
$$

MSZ080>082-021800-
COASTAL MISSISSIPPI

CITY           SKY/WX    TMP DP  RH WIND       PRES   REMARKS
BAY ST LOUIS   CLOUDY    64  61  88 SE5       30.29F FOG
BILOXI         FOG       64  64 100 SE7       30.29S VSB 1/2
PASCAGOULA     CLOUDY    66  65  96 SE6       30.30S
GULFPORT       FOG       64  63  96 SE7       30.29F VSB 1/4
$$



USA.gov is the U.S. government's official web portal to all federal, state and local government web resources and services.